User: anonymous   Login
Location: Unspecified
(0.0000°N, 0.0000°E)
Time: 07:57:26
(UTC+00:00)
Language:

COSMOS 2501 (GLONASS) - Orbit

View from above orbital plane
View from above orbital plane
View from above satellite
View from above satellite

Ground track
Ground track

The orbit data is extracted from the following two-line orbital elements,

1 40315U 14075A   17143.44088343 -.00000019 +00000-0 +00000-0 0  9991
2 40315 064.4230 306.2062 0014179 204.1535 292.0633 02.13098583019289
Epoch (UTC): 23 May 2017 10:34:52
Eccentricity: 0.0014179
inclination: 64.4230°
perigee height: 19094 km
apogee height: 19166 km
right ascension of ascending node: 306.2062°
argument of perigee: 204.1535°
revolutions per day: 2.13098583
mean anomaly at epoch: 292.0633°
orbit number at epoch: 1928

The dashed part of the orbit path shows where the satellite is in the earth's shadow,  

DLR